Vertical_Velocity
0 4 8 11 7 4 2 0 0 2 4 6 5 2 -0 -2 -3 -5 -6 -7 -6 -0 7 12 9 5 3 0 -3 -3 -2 -2 -3 -2 -1 -1 -1 -0 0 -0 2 9 14 13 11 7 1 -1 -1 -2 -2 -1 -0 0 -0 -0 -1 0 3 6 4 3 2 1 2 2 1 -1 -1
-3 -2 1 8 6 4 1 1 2 2 3 3 2 1 -0 -2 -3 -5 -6 -8 -7 -0 8 15 10 6 2 -1 -3 -2 -1 -0 -2 -2 -1 0 -1 0 1 0 3 9 14 11 10 6 2 -1 -2 -2 -2 -1 0 0 -0 0 1 2 3 4 3 2 2 2 3 2 1 -1 0
-3 -2 1 5 -1 -3 -3 1 3 3 2 0 0 1 1 -1 -4 -6 -8 -10 -8 0 9 17 11 6 2 -0 -1 0 2 2 -1 -1 -1 1 -0 0 1 1 4 11 14 9 7 4 1 -1 -2 -2 -2 -1 0 0 -0 -0 1 3 3 2 2 3 4 4 3 1 -1 -0 1
-1 0 1 1 -4 -6 -4 0 5 4 1 -1 2 3 2 -3 -5 -8 -10 -11 -6 1 8 16 10 5 2 1 1 3 4 3 -0 -1 -0 1 0 0 1 2 6 11 13 8 5 2 -0 -1 -2 -2 -1 0 1 0 -0 -0 2 4 4 2 3 5 6 4 1 -2 -2 -0 1
1 1 1 -1 -3 -3 -1 5 7 5 1 -0 5 5 1 -5 -7 -9 -11 -10 -5 0 6 14 9 6 4 3 3 4 5 3 0 -0 1 2 0 0 1 2 6 11 13 10 7 3 -1 -2 -2 -1 0 2 2 1 0 1 3 4 5 3 3 5 5 2 -2 -4 -3 0 1
-1 -1 -1 -1 -1 2 7 10 8 4 2 0 3 1 -4 -7 -9 -11 -11 -7 -1 2 6 12 7 6 6 2 3 4 5 4 1 -0 1 3 1 0 1 2 6 12 14 11 11 6 1 -2 -2 -0 2 3 2 1 1 3 4 5 4 3 1 1 1 -2 -4 -4 -1 1 2
-3 -3 -2 -3 1 5 7 6 4 3 1 -1 -2 -5 -8 -9 -10 -8 -5 2 2 3 5 9 5 5 4 1 2 3 4 3 -0 -1 1 3 2 1 -0 0 5 11 14 11 11 8 3 -1 -0 1 2 2 1 1 2 3 4 4 3 1 -1 -2 -3 -4 -3 -1 1 2 3
-2 -2 -2 -2 -1 1 2 2 2 1 -0 -3 -5 -7 -9 -8 -6 -2 3 6 -2 -1 5 8 5 3 2 -0 2 2 0 -1 -2 -2 -1 3 2 1 0 -0 5 11 13 9 9 7 4 1 2 2 2 0 -1 0 2 3 3 3 2 -0 -2 -4 -4 -3 -1 0 1 2 4
-1 -2 -2 -1 0 1 2 2 1 -0 -2 -4 -6 -7 -6 -3 1 5 4 -4 -7 -0 8 8 6 3 1 3 3 1 -1 -1 -2 -2 -1 2 2 1 1 0 5 10 12 9 7 6 5 3 3 2 1 -1 -1 0 1 2 2 1 0 -2 -4 -4 -3 -1 0 1 1 1 3
-1 -3 -3 -1 -0 0 1 1 1 -1 -3 -5 -4 -3 -0 4 7 4 -2 -11 -2 6 10 9 5 2 2 4 3 4 5 2 -1 -2 -2 1 2 1 0 1 5 9 11 7 7 6 5 3 2 2 1 -1 -0 0 1 1 1 -0 -2 -4 -4 -3 -1 1 1 2 2 2 3
-1 -4 -4 -1 -1 -1 0 3 3 1 -1 -3 -1 2 4 7 4 -1 -5 -3 5 8 8 6 3 2 1 1 2 6 9 6 1 -2 -2 0 1 0 -0 1 5 8 8 6 6 5 4 3 2 1 -1 -1 -0 0 1 1 1 -1 -3 -4 -2 0 1 1 2 3 3 3 3
-3 -4 -5 -1 -1 -1 0 4 4 2 -0 -1 1 3 4 2 -3 -4 -0 7 8 8 7 4 4 3 1 -1 -1 3 6 6 2 -1 -2 -1 0 0 1 3 7 8 7 6 5 5 4 2 1 -0 -1 -1 -0 1 1 1 -0 -2 -3 -1 1 2 1 1 1 2 3 2 1
-3 -4 -6 -4 -3 -2 -1 0 -0 -1 -1 -0 1 1 0 -3 -2 1 6 8 8 6 5 4 4 2 -1 -2 -3 -1 2 6 2 -0 -1 -0 0 1 3 6 8 8 7 6 5 4 3 1 0 -1 -2 -1 1 1 1 -0 -1 -2 -1 1 2 2 1 0 2 2 2 1 -1
-1 -3 -4 -5 -6 -5 -5 -4 -4 -3 -3 -3 -2 -1 -1 -1 3 5 5 4 4 3 2 3 3 0 -2 -2 -2 2 6 6 2 1 1 2 3 5 7 9 9 8 7 6 5 3 1 0 -1 -2 -1 1 1 1 0 -1 -1 -1 1 2 1 1 2 2 3 2 2 1 -0
-1 -2 -3 -4 -5 -6 -6 -5 -5 -4 -4 -4 -3 -2 -0 1 2 2 1 -1 -1 -1 0 4 4 2 -2 -2 3 7 8 4 2 2 3 4 6 8 10 10 8 9 9 8 5 2 0 -1 -1 -0 0 1 1 -0 -1 -2 -1 1 2 2 1 2 3 4 4 3 2 1 0
0 -1 -2 -2 -3 -3 -4 -4 -4 -4 -3 -3 -2 -1 0 2 2 0 -2 -5 -4 -2 1 6 6 2 -2 -1 7 8 5 1 2 2 3 4 6 8 8 7 7 10 13 12 6 1 -1 -0 1 1 1 -0 -2 -2 -2 -2 -0 1 3 3 3 4 5 5 3 3 2 1 1
1 1 0 -0 -1 -1 -1 -1 -2 -2 -2 -2 -1 -0 1 2 1 -0 -2 -3 -0 2 4 7 5 0 -3 0 5 3 -1 -1 1 1 2 1 1 2 2 3 9 15 18 13 4 -1 -1 1 1 1 -1 -3 -3 -2 -2 -0 1 3 5 5 5 5 5 4 3 3 2 2 3
1 2 2 2 1 1 1 1 -0 -1 -1 -1 -1 -1 -1 -1 -1 1 3 5 7 10 12 15 11 4 -0 1 3 -1 -5 -4 -2 -0 1 -1 -1 -0 2 6 16 21 18 7 0 -1 -1 -0 -1 -2 -3 -3 -2 -1 -0 2 5 6 7 7 6 5 4 3 3 3 3 3 5
-1 0 1 1 1 1 1 1 -1 -0 1 1 -2 -3 -3 -2 1 4 7 10 15 19 21 21 16 9 3 2 4 -2 -8 -9 -4 -0 3 5 8 10 12 15 21 20 13 2 1 -0 -1 -3 -5 -5 -4 -3 -1 1 3 6 8 8 7 5 4 3 3 2 2 3 3 4 6
-3 -2 -1 -0 -1 -1 -1 1 -0 -0 -1 -2 -4 -1 4 7 8 7 6 9 14 17 17 14 11 7 5 6 6 -2 -8 -6 -1 4 9 16 22 23 21 18 15 9 4 -0 0 -1 -3 -4 -5 -4 -3 -1 1 4 6 8 7 6 4 3 2 1 1 1 1 2 3 5 6
-2 -1 1 -1 -3 -2 1 6 4 2 -1 -1 2 6 10 12 9 6 4 3 4 5 4 4 3 6 8 9 3 1 3 10 13 15 17 22 26 24 17 8 2 -2 -2 -2 -2 -3 -4 -4 -3 -2 0 2 5 6 6 5 4 3 1 0 -1 -1 -0 1 2 3 5 7 7
-1 -1 -0 -1 -2 1 6 8 5 3 1 2 3 4 6 8 7 5 3 2 1 0 -0 0 1 5 7 6 2 8 17 24 25 22 18 13 12 9 4 -1 -4 -6 -6 -5 -5 -5 -4 -2 -1 2 4 6 7 6 5 3 2 1 -0 -1 -1 0 2 4 5 6 7 7 6
-0 -0 -1 -1 -2 -1 1 2 2 2 2 2 1 0 1 4 4 4 3 3 2 1 0 1 2 4 5 4 4 11 19 22 18 13 6 -2 -2 -2 -3 -4 -6 -7 -8 -7 -6 -5 -4 -2 2 5 7 7 6 5 4 3 1 0 -1 -1 0 2 4 5 6 7 6 5 3
-1 -1 -2 -3 -5 -5 -3 -1 1 2 2 1 -3 -5 -6 -5 -2 0 2 2 1 -1 -1 1 6 9 10 6 5 7 10 9 6 2 -3 -7 -5 -4 -4 -6 -7 -6 -4 -3 -1 -2 -2 1 4 5 6 5 4 4 3 2 2 1 0 0 2 3 4 4 5 5 4 2 0
-2 -3 -4 -6 -9 -10 -9 -6 -1 1 2 -1 -4 -7 -8 -8 -5 -2 1 1 -3 -4 -3 5 16 20 17 5 -1 -3 -2 1 3 2 -1 -5 -3 -4 -5 -6 -3 0 3 4 4 4 4 5 4 4 3 3 3 3 3 3 3 2 2 3 4 3 2 1 2 2 1 -0 -1
-2 -3 -4 -6 -9 -10 -11 -9 -6 -2 1 5 7 10 13 16 18 20 18 12 5 2 4 13 17 13 5 -4 -7 -7 -6 -3 2 4 3 -2 -3 -4 -4 -4 1 5 7 6 6 7 8 8 6 4 3 3 2 2 1 2 3 3 5 6 5 3 -1 -3 -2 -2 -2 -2 -2
-1 -2 -4 -5 -6 -7 -8 -7 -4 -0 5 13 18 21 22 21 18 16 15 14 12 9 7 6 1 -3 -6 -6 -5 -5 -4 -4 -0 3 5 2 -1 -2 -1 1 4 6 6 6 7 7 8 7 6 5 4 3 2 1 0 0 3 5 6 7 5 2 -2 -4 -3 -3 -3 -4 -2
1 0 -1 -2 -3 -2 -1 0 2 6 11 17 15 10 2 -6 -6 -2 3 10 11 7 1 -4 -4 -4 -3 -2 -1 -2 -2 -2 -0 1 3 4 3 3 3 4 5 5 5 5 6 6 6 5 6 5 5 3 3 2 2 2 3 4 4 5 4 1 -1 -3 -3 -4 -4 -5 -3
3 3 4 4 5 7 8 8 6 6 5 2 -4 -5 -5 -4 -6 -6 -4 1 3 2 -0 -3 -3 -3 -3 -1 -1 -1 -1 -0 1 2 2 3 3 3 3 3 3 4 5 5 5 5 5 5 5 5 5 3 2 2 2 2 2 1 1 1 0 -1 -2 -4 -5 -5 -5 -4 -3
3 2 2 3 5 6 6 4 1 -1 -2 -3 -4 -4 -3 -1 -1 -2 -2 -1 -1 0 0 -1 -2 -3 -3 -2 -2 -1 -1 -0 1 1 1 0 1 1 2 2 2 3 5 5 5 5 5 4 5 5 5 4 1 -1 -2 -1 -2 -3 -3 -3 -3 -3 -4 -6 -6 -4 -2 -0 1
5 3 0 -2 -2 -2 -1 1 1 2 2 2 1 1 -0 -1 0 0 0 0 0 1 1 1 -0 -1 -1 -0 -1 -1 -1 -1 -0 -0 -0 -1 -0 0 1 2 2 3 4 5 5 5 4 4 4 4 3 2 -0 -2 -3 -3 -3 -3 -4 -4 -4 -4 -4 -4 -3 -2 1 3 3
7 5 2 -0 0 2 3 3 3 3 2 2 2 1 1 1 1 0 0 -0 -0 1 1 2 1 1 1 2 2 1 1 1 2 2 2 1 1 1 1 2 2 3 4 5 4 3 3 3 3 3 2 1 -0 -1 -1 -2 -1 -2 -2 -2 -3 -3 -3 -2 -1 1 2 3 2
6 5 2 -0 1 2 3 3 3 3 2 1 1 1 1 2 2 2 2 1 1 1 2 2 2 2 3 3 2 2 2 2 3 3 3 3 1 0 0 1 2 3 4 3 3 3 3 3 3 3 2 1 -0 -0 -0 -1 -1 -2 -2 -3 -3 -2 -2 -1 -0 0 0 0 -0
4 4 3 1 1 1 2 3 3 2 1 0 1 1 2 4 4 4 4 4 3 3 3 3 3 3 3 3 2 1 1 2 3 3 3 2 1 0 -1 -1 1 3 4 4 4 4 4 4 3 2 1 -0 -1 -1 -1 -1 -2 -2 -3 -3 -3 -2 -1 0 1 1 0 -0 -1
2 2 2 1 1 1 1 2 2 1 1 0 2 3 3 4 4 4 4 5 3 2 2 3 3 3 3 3 3 2 2 2 2 2 3 2 1 -1 -2 -2 1 4 6 7 7 7 6 4 3 1 -0 -1 -2 -2 -1 -1 -1 -1 -1 -1 -0 1 2 2 2 2 1 1 -0
2 1 1 0 -0 -0 0 1 1 0 -0 0 1 2 2 2 3 4 5 4 2 1 1 2 2 2 2 2 3 3 3 2 2 2 3 3 1 -1 -2 -1 3 7 9 9 8 6 3 1 -1 -2 -3 -3 -3 -2 -2 -2 -1 -0 0 -0 0 1 2 3 2 1 1 0 -0
3 2 2 0 -1 -1 -0 1 1 0 0 1 1 1 2 2 3 5 6 5 2 1 1 2 1 1 1 0 1 3 4 4 2 2 3 4 2 1 -0 1 5 7 8 6 4 2 -0 -3 -4 -4 -4 -4 -3 -2 -2 -2 -2 -1 -1 -1 -1 -0 1 1 1 1 0 0 1
2 3 2 1 0 -0 0 1 1 1 2 3 3 3 3 2 3 5 6 5 2 1 2 1 1 1 1 0 0 2 4 5 3 2 2 4 4 3 2 2 3 3 1 -1 -2 -1 -1 -1 -1 -1 -2 -2 -2 -2 -2 -3 -2 -2 -2 -3 -2 -1 -0 0 1 1 1 2 2
2 2 2 1 1 1 0 1 1 2 3 3 3 3 2 1 1 3 4 3 2 1 0 0 2 3 3 2 1 2 4 6 5 3 2 3 5 4 1 -2 -2 -2 -2 -3 -2 -1 1 2 2 2 2 0 -0 -1 -1 -2 -2 -2 -2 -2 -2 -1 0 1 2 1 1 1 0
2 2 2 1 1 1 1 1 2 3 3 2 1 0 -0 -1 -0 1 2 2 1 1 -0 -0 2 4 5 4 2 3 4 6 6 4 3 3 4 3 0 -4 -4 -2 -1 0 1 3 4 5 6 6 5 4 3 2 1 0 -1 -2 -1 -0 -0 0 1 2 2 1 -1 -2 -3
3 2 2 2 2 2 1 1 2 2 2 0 -1 -0 -0 -0 0 1 1 1 1 0 -0 -0 1 3 4 4 3 2 2 3 4 4 3 2 2 1 -0 -3 -2 -0 2 5 6 7 7 8 8 7 6 4 3 3 2 1 -0 -1 -1 1 1 1 0 0 0 -1 -2 -3 -4
Height
1389 1388 1387 1386 1386 1386 1386 1386 1386 1387 1387 1387 1388 1388 1388 1389 1389 1390 1390 1391 1391 1392 1393 1393 1394 1394 1395 1395 1396 1396 1396 1397 1397 1398 1399 1400 1402 1404 1406 1408 1410 1412 1414 1414 1415 1417 1418 1419 1421 1422 1424 1425 1426 1427 1428 1429 1429 1431 1432 1433 1434 1434 1435 1436 1437 1438 1438 1439 1440
1387 1386 1386 1385 1385 1385 1385 1385 1385 1385 1386 1386 1387 1387 1388 1388 1388 1388 1389 1390 1390 1391 1392 1392 1393 1393 1394 1394 1395 1396 1396 1396 1397 1398 1398 1400 1401 1403 1405 1407 1409 1411 1413 1413 1414 1416 1417 1419 1420 1422 1423 1424 1425 1426 1427 1428 1429 1430 1431 1432 1433 1434 1435 1436 1437 1437 1438 1439 1439
1385 1384 1384 1384 1383 1383 1383 1384 1384 1384 1384 1385 1386 1386 1387 1387 1387 1388 1388 1388 1389 1390 1391 1392 1392 1392 1393 1394 1394 1395 1395 1396 1397 1397 1398 1399 1401 1403 1404 1406 1408 1411 1412 1413 1414 1415 1417 1418 1420 1421 1423 1424 1425 1426 1427 1428 1428 1429 1430 1431 1432 1433 1434 1435 1436 1437 1438 1438 1439
1384 1383 1383 1382 1382 1382 1382 1383 1383 1383 1383 1384 1385 1386 1386 1386 1387 1387 1388 1388 1388 1389 1390 1391 1391 1392 1393 1394 1394 1394 1395 1395 1396 1397 1398 1399 1400 1402 1404 1406 1408 1410 1411 1413 1414 1415 1416 1418 1419 1421 1422 1423 1424 1425 1426 1427 1428 1429 1430 1430 1432 1433 1434 1435 1435 1436 1437 1438 1438
1383 1382 1382 1381 1381 1381 1381 1382 1382 1382 1383 1384 1385 1385 1386 1386 1386 1387 1387 1388 1388 1388 1389 1390 1390 1391 1393 1393 1393 1393 1394 1395 1396 1397 1397 1398 1400 1401 1403 1405 1407 1409 1410 1411 1413 1414 1416 1418 1419 1421 1422 1423 1424 1424 1425 1426 1427 1428 1429 1430 1431 1433 1433 1434 1435 1436 1437 1437 1438
1383 1382 1381 1381 1380 1380 1381 1381 1381 1382 1383 1383 1384 1385 1385 1385 1386 1386 1387 1387 1387 1388 1388 1389 1390 1391 1392 1393 1393 1393 1393 1394 1395 1396 1397 1398 1399 1401 1403 1404 1406 1408 1410 1410 1412 1413 1415 1417 1419 1420 1421 1422 1423 1424 1425 1426 1427 1428 1428 1430 1431 1432 1433 1434 1435 1436 1436 1436 1437
1383 1382 1381 1381 1380 1380 1381 1381 1381 1382 1383 1383 1384 1384 1384 1385 1385 1386 1386 1387 1387 1388 1388 1389 1390 1391 1392 1392 1392 1392 1393 1393 1395 1396 1397 1398 1399 1401 1402 1404 1406 1408 1409 1410 1411 1413 1415 1417 1418 1420 1421 1422 1422 1423 1424 1425 1426 1427 1428 1429 1430 1431 1432 1434 1434 1435 1435 1436 1437
1383 1383 1382 1381 1381 1381 1381 1381 1381 1382 1383 1383 1383 1384 1384 1385 1385 1385 1386 1386 1387 1388 1388 1389 1390 1390 1391 1392 1392 1392 1393 1394 1394 1395 1396 1397 1398 1400 1402 1403 1406 1408 1409 1410 1412 1413 1415 1417 1418 1419 1420 1421 1422 1423 1424 1425 1426 1427 1428 1428 1429 1431 1432 1433 1434 1434 1435 1436 1437
1384 1383 1383 1382 1382 1382 1382 1382 1382 1382 1383 1383 1384 1384 1384 1385 1385 1385 1386 1386 1387 1387 1388 1389 1389 1390 1391 1391 1391 1392 1393 1393 1394 1395 1396 1397 1398 1400 1402 1403 1405 1408 1409 1411 1412 1413 1415 1417 1418 1418 1419 1420 1421 1422 1423 1424 1425 1426 1427 1428 1429 1431 1432 1433 1433 1434 1435 1436 1437
1385 1384 1384 1383 1383 1383 1383 1383 1383 1383 1383 1384 1384 1384 1384 1385 1385 1385 1386 1386 1386 1387 1388 1388 1389 1390 1390 1390 1391 1392 1393 1393 1394 1394 1395 1396 1398 1400 1401 1403 1405 1407 1409 1410 1412 1413 1415 1416 1417 1418 1418 1419 1421 1422 1423 1423 1425 1426 1427 1428 1429 1431 1432 1433 1433 1434 1435 1436 1437
1386 1385 1385 1384 1384 1384 1383 1384 1384 1384 1384 1384 1384 1384 1385 1385 1385 1385 1385 1386 1387 1387 1388 1388 1389 1389 1390 1390 1391 1391 1392 1393 1393 1394 1395 1396 1398 1399 1401 1403 1405 1407 1408 1410 1412 1413 1414 1415 1416 1417 1418 1419 1420 1421 1423 1423 1425 1426 1427 1428 1429 1431 1432 1432 1433 1434 1435 1436 1437
1386 1386 1386 1385 1385 1385 1384 1385 1385 1385 1385 1385 1385 1384 1384 1385 1385 1385 1385 1386 1387 1387 1388 1388 1388 1389 1389 1390 1390 1391 1391 1392 1393 1394 1395 1396 1397 1399 1401 1403 1405 1407 1408 1410 1412 1413 1414 1415 1416 1417 1418 1419 1420 1421 1422 1423 1425 1426 1427 1428 1429 1430 1431 1432 1433 1433 1434 1435 1436
1387 1387 1386 1386 1386 1385 1385 1385 1385 1385 1385 1385 1385 1384 1384 1384 1385 1385 1386 1386 1387 1387 1388 1388 1388 1388 1389 1389 1390 1390 1391 1391 1392 1393 1395 1396 1398 1399 1401 1403 1404 1406 1408 1410 1411 1413 1413 1414 1415 1416 1418 1419 1420 1421 1423 1424 1425 1426 1427 1428 1429 1430 1431 1432 1432 1433 1434 1435 1436
1388 1387 1387 1387 1386 1386 1386 1386 1386 1386 1386 1385 1385 1385 1385 1385 1385 1386 1386 1386 1387 1387 1388 1388 1388 1388 1388 1389 1389 1389 1390 1391 1392 1393 1395 1396 1398 1399 1401 1403 1404 1406 1408 1409 1411 1412 1413 1414 1415 1417 1418 1419 1420 1422 1423 1424 1425 1426 1427 1428 1429 1430 1430 1431 1432 1433 1433 1434 1435
1388 1388 1388 1388 1387 1387 1387 1387 1387 1387 1386 1386 1386 1386 1385 1386 1386 1386 1386 1386 1387 1387 1387 1387 1388 1388 1388 1388 1389 1389 1390 1391 1393 1394 1395 1396 1398 1399 1401 1403 1404 1406 1407 1409 1410 1411 1413 1414 1415 1417 1418 1419 1421 1422 1423 1424 1426 1427 1427 1428 1429 1430 1430 1431 1432 1433 1433 1433 1434
1390 1389 1389 1388 1388 1388 1388 1387 1387 1387 1387 1387 1386 1386 1386 1386 1386 1386 1386 1386 1386 1387 1387 1387 1388 1388 1388 1388 1389 1390 1391 1392 1393 1394 1395 1396 1398 1399 1401 1402 1404 1405 1407 1408 1409 1411 1413 1414 1416 1417 1418 1420 1421 1423 1423 1424 1425 1426 1427 1428 1429 1430 1431 1431 1432 1433 1433 1433 1434
1391 1390 1390 1389 1389 1388 1388 1388 1388 1388 1388 1387 1387 1387 1386 1386 1386 1386 1386 1386 1386 1387 1387 1388 1388 1388 1388 1389 1389 1390 1391 1392 1393 1394 1396 1397 1398 1399 1401 1402 1404 1405 1406 1407 1409 1411 1413 1414 1416 1417 1419 1420 1422 1423 1423 1424 1425 1426 1427 1428 1429 1430 1431 1431 1432 1432 1433 1433 1434
1392 1391 1390 1390 1389 1389 1389 1389 1388 1388 1388 1388 1387 1387 1387 1387 1386 1386 1386 1386 1387 1387 1387 1388 1388 1388 1388 1389 1390 1390 1391 1392 1393 1395 1396 1398 1399 1400 1401 1402 1404 1405 1406 1407 1409 1411 1413 1415 1416 1418 1419 1420 1422 1423 1423 1424 1425 1426 1427 1428 1429 1430 1430 1431 1432 1432 1433 1433 1434
1392 1392 1391 1391 1390 1390 1389 1389 1389 1388 1388 1388 1388 1388 1387 1387 1387 1387 1387 1387 1387 1387 1388 1388 1388 1388 1389 1389 1390 1391 1392 1393 1394 1395 1396 1398 1399 1400 1401 1403 1404 1405 1406 1408 1410 1412 1413 1415 1416 1418 1419 1420 1421 1422 1423 1424 1425 1426 1427 1428 1428 1429 1430 1431 1431 1432 1433 1433 1435
1393 1393 1392 1392 1391 1391 1390 1390 1389 1389 1389 1389 1388 1388 1388 1388 1388 1388 1388 1387 1388 1388 1388 1388 1388 1388 1389 1390 1391 1392 1393 1393 1394 1395 1397 1398 1399 1401 1402 1403 1404 1405 1407 1408 1410 1412 1414 1415 1417 1418 1419 1420 1421 1422 1423 1424 1424 1425 1426 1427 1428 1429 1430 1430 1431 1432 1433 1434 1435
1394 1393 1393 1393 1392 1392 1391 1390 1390 1390 1390 1389 1389 1388 1388 1388 1388 1388 1388 1388 1388 1388 1388 1388 1388 1389 1389 1390 1391 1393 1393 1394 1395 1396 1398 1399 1400 1401 1402 1403 1404 1406 1408 1410 1411 1413 1415 1416 1417 1418 1419 1420 1421 1422 1423 1423 1424 1425 1426 1427 1428 1429 1429 1430 1431 1432 1433 1435 1436
1394 1394 1393 1393 1393 1392 1392 1391 1391 1391 1390 1390 1389 1388 1388 1388 1388 1388 1388 1388 1389 1389 1389 1389 1390 1390 1391 1392 1393 1394 1394 1395 1396 1397 1398 1399 1400 1401 1403 1404 1406 1407 1409 1411 1413 1414 1415 1416 1418 1418 1419 1420 1421 1422 1422 1423 1424 1425 1426 1427 1428 1429 1430 1431 1432 1433 1435 1436 1438
1395 1395 1394 1393 1393 1393 1392 1392 1392 1391 1391 1390 1389 1389 1388 1388 1388 1388 1388 1389 1390 1390 1390 1391 1391 1392 1393 1394 1394 1395 1395 1396 1397 1398 1399 1400 1402 1403 1404 1406 1407 1409 1410 1412 1413 1414 1415 1416 1417 1418 1419 1420 1421 1422 1423 1423 1424 1425 1426 1427 1428 1429 1430 1432 1433 1435 1436 1438 1439
1396 1395 1395 1394 1393 1393 1393 1392 1392 1392 1391 1391 1390 1390 1389 1389 1388 1389 1389 1390 1390 1391 1391 1392 1393 1394 1395 1395 1396 1396 1397 1397 1398 1399 1401 1402 1403 1404 1406 1408 1409 1410 1412 1413 1413 1414 1415 1416 1417 1418 1419 1420 1421 1422 1423 1424 1425 1426 1426 1428 1428 1430 1431 1433 1435 1436 1438 1439 1441
1397 1396 1396 1395 1394 1394 1393 1393 1393 1392 1392 1392 1392 1392 1391 1390 1390 1390 1390 1391 1391 1392 1393 1393 1394 1395 1396 1396 1397 1398 1399 1399 1400 1401 1402 1403 1405 1406 1408 1409 1410 1411 1413 1414 1415 1416 1416 1417 1418 1418 1419 1420 1421 1422 1423 1424 1425 1426 1427 1428 1429 1431 1432 1434 1436 1437 1439 1440 1442
1398 1397 1397 1396 1396 1395 1395 1394 1394 1393 1393 1393 1393 1392 1392 1391 1391 1391 1392 1392 1393 1393 1394 1395 1395 1396 1396 1397 1398 1400 1401 1402 1403 1403 1404 1405 1406 1408 1409 1410 1411 1413 1414 1415 1416 1416 1417 1418 1418 1419 1420 1421 1421 1422 1423 1425 1426 1427 1428 1430 1431 1432 1433 1435 1437 1438 1440 1441 1443
1399 1398 1398 1398 1397 1397 1396 1396 1395 1395 1394 1394 1394 1394 1394 1394 1393 1392 1392 1393 1393 1394 1395 1396 1396 1397 1398 1399 1400 1402 1403 1403 1404 1405 1406 1407 1408 1409 1411 1412 1413 1414 1415 1416 1416 1417 1418 1418 1419 1420 1420 1421 1422 1423 1424 1425 1427 1429 1430 1431 1433 1434 1435 1437 1438 1439 1441 1442 1443
1400 1399 1399 1399 1398 1398 1398 1397 1397 1397 1397 1397 1397 1397 1396 1396 1395 1395 1395 1395 1395 1396 1397 1398 1398 1399 1400 1401 1402 1403 1404 1405 1406 1407 1408 1409 1410 1411 1412 1413 1414 1415 1416 1416 1417 1418 1418 1419 1420 1420 1421 1422 1423 1424 1425 1427 1429 1430 1432 1433 1434 1436 1437 1438 1440 1441 1442 1443 1444
1402 1401 1401 1400 1400 1400 1400 1400 1400 1400 1400 1400 1400 1399 1398 1398 1398 1398 1398 1398 1398 1399 1399 1400 1401 1402 1402 1403 1404 1405 1406 1407 1408 1408 1409 1410 1411 1412 1413 1414 1415 1416 1417 1417 1418 1418 1419 1420 1420 1421 1422 1423 1424 1425 1427 1428 1430 1432 1433 1435 1436 1438 1439 1440 1442 1443 1443 1444 1446
1404 1403 1403 1403 1403 1402 1402 1402 1402 1402 1402 1401 1401 1401 1400 1400 1400 1400 1401 1400 1401 1401 1402 1402 1403 1403 1404 1405 1406 1407 1408 1408 1409 1410 1411 1412 1413 1413 1414 1415 1416 1417 1418 1418 1419 1419 1420 1421 1421 1422 1423 1424 1425 1426 1428 1429 1431 1432 1434 1436 1437 1439 1441 1442 1443 1444 1445 1446 1447
1406 1405 1404 1404 1404 1404 1403 1403 1403 1403 1403 1402 1402 1402 1402 1402 1402 1402 1403 1403 1403 1403 1404 1404 1405 1405 1406 1407 1408 1408 1409 1410 1411 1412 1412 1413 1414 1415 1416 1416 1417 1418 1419 1420 1420 1421 1421 1422 1423 1423 1424 1425 1426 1428 1429 1431 1432 1434 1436 1437 1439 1441 1442 1443 1444 1445 1446 1447 1448
1408 1408 1407 1406 1406 1406 1406 1406 1405 1405 1404 1404 1404 1404 1404 1404 1404 1404 1404 1405 1405 1405 1406 1406 1407 1407 1408 1408 1409 1410 1410 1411 1412 1413 1413 1414 1415 1416 1417 1418 1419 1420 1420 1421 1421 1422 1423 1423 1424 1425 1426 1427 1428 1430 1431 1433 1435 1436 1438 1439 1441 1443 1444 1445 1446 1446 1447 1448 1449
1411 1410 1409 1409 1408 1408 1408 1408 1407 1407 1406 1406 1406 1406 1406 1406 1406 1406 1406 1407 1407 1407 1408 1408 1408 1409 1409 1410 1411 1411 1412 1413 1414 1414 1415 1416 1417 1417 1418 1419 1420 1421 1422 1422 1423 1423 1424 1425 1426 1428 1429 1430 1432 1433 1434 1436 1437 1438 1440 1441 1442 1444 1445 1446 1446 1447 1448 1449 1449
1413 1412 1411 1411 1411 1410 1410 1409 1409 1408 1408 1408 1408 1408 1408 1408 1408 1408 1408 1408 1408 1408 1409 1409 1410 1410 1411 1412 1412 1413 1414 1415 1416 1416 1417 1418 1418 1419 1419 1420 1422 1423 1424 1424 1425 1426 1427 1428 1429 1431 1432 1433 1434 1436 1437 1438 1439 1440 1441 1442 1443 1444 1445 1446 1447 1448 1449 1450 1450
1415 1414 1414 1413 1413 1413 1412 1412 1411 1411 1410 1410 1410 1410 1410 1410 1410 1410 1410 1410 1410 1410 1410 1411 1411 1412 1413 1413 1414 1414 1415 1416 1417 1418 1419 1419 1420 1420 1421 1422 1424 1426 1427 1428 1428 1429 1431 1432 1433 1434 1435 1436 1437 1438 1439 1440 1441 1442 1443 1444 1445 1446 1447 1448 1449 1449 1450 1451 1452
1417 1417 1416 1415 1415 1415 1414 1414 1414 1413 1413 1413 1413 1413 1413 1412 1412 1412 1412 1412 1412 1412 1412 1413 1413 1413 1414 1415 1416 1417 1417 1418 1419 1420 1420 1421 1422 1422 1423 1425 1427 1429 1431 1432 1433 1433 1434 1435 1436 1437 1438 1438 1439 1440 1441 1442 1443 1444 1445 1446 1447 1448 1448 1449 1450 1451 1452 1453 1453
1420 1419 1418 1418 1417 1417 1417 1416 1416 1415 1415 1415 1415 1415 1414 1414 1414 1414 1414 1414 1414 1414 1414 1415 1415 1416 1416 1417 1418 1418 1419 1420 1421 1422 1423 1424 1424 1425 1426 1428 1431 1433 1434 1435 1436 1437 1438 1439 1440 1440 1441 1441 1442 1443 1443 1444 1445 1446 1447 1448 1448 1449 1450 1451 1452 1453 1453 1454 1454
1423 1422 1421 1420 1419 1419 1419 1418 1418 1417 1417 1417 1417 1417 1417 1416 1416 1417 1417 1416 1416 1416 1417 1417 1418 1418 1419 1419 1420 1421 1422 1423 1423 1424 1425 1427 1428 1428 1430 1431 1433 1436 1438 1438 1439 1440 1441 1442 1443 1443 1444 1444 1445 1445 1446 1446 1447 1448 1448 1449 1450 1451 1452 1452 1453 1454 1454 1455 1456
1425 1424 1423 1423 1422 1422 1421 1421 1420 1420 1420 1419 1419 1419 1419 1419 1419 1419 1419 1419 1419 1419 1419 1420 1421 1421 1422 1422 1423 1423 1425 1426 1427 1427 1428 1430 1431 1432 1433 1434 1436 1438 1440 1441 1442 1443 1443 1444 1445 1446 1447 1447 1447 1448 1448 1448 1449 1449 1450 1451 1451 1452 1453 1453 1454 1455 1455 1456 1457
1427 1426 1426 1425 1424 1424 1423 1423 1423 1423 1423 1422 1422 1422 1422 1422 1423 1423 1423 1423 1423 1423 1423 1423 1424 1425 1425 1426 1426 1427 1428 1429 1430 1431 1432 1433 1435 1436 1436 1437 1439 1441 1443 1444 1445 1445 1446 1447 1448 1448 1448 1449 1449 1449 1450 1450 1451 1451 1452 1452 1453 1453 1454 1455 1455 1456 1457 1457 1458
1429 1429 1428 1428 1427 1427 1426 1426 1426 1426 1426 1425 1425 1426 1426 1426 1426 1426 1426 1426 1426 1426 1427 1427 1428 1429 1429 1429 1430 1430 1431 1432 1434 1435 1436 1437 1438 1439 1440 1441 1442 1443 1444 1446 1447 1448 1448 1449 1450 1450 1451 1451 1451 1452 1452 1453 1453 1453 1454 1454 1455 1455 1456 1456 1457 1457 1458 1458 1459